COSMOS 1275 DEB, 12722

Orbit data source: Space-Track

COSMOS 1275 DEB, 12722 is space debris in LEO originally from a launch on Thu, 04 Jun 1981 UTC launched from the Plesetsk Missile And Space Complex (PKMTR). Debris objects in space refer to the collection of defunct objects orbiting the Earth. Examples of debris include non-operational satellites, rocket bodies, and fragments generated from explosions, collisions, or faulty payload assembly.

Loading next visibility...
Identifier
12722, 1981-053BP
Orbit
LEO
Country
Flag of CISCIS
Related business
Manufacturer
Unknown
Mission
Spacecraft
Bus & Motor
Unknown
Mass
Unknown
Launch date (UTC)
1981-06-04 (45 years ago)
Launch vehicle
Unknown
Launch site
Plesetsk Missile And Space Complex (PKMTR)
Object type
Payload
Rocket body
Debris
Shape & HBR
Unknown shape, 0.1 m
Radar Cross Section
Medium (>0.1 m² and <1 m²)

Expand to show TLE details & history
Last TLE update: 2 days ago

TLE from 2 days ago
0 COSMOS 1275 DEB
1 12722U 81053BP  26171.16528087  .00000618  00000-0  48459-3 0  9993
2 12722  82.9007  70.4383 0062459 206.4321 153.3654 13.89607063259287
Epoch: 2026-06-20T03:58Z
TLE epoch observation values (Epoch: 2026-06-20T03:58:00.267Z)
Latitude
-0°
Longitude
102.55337°
Altitude
973.794 km
Speed
7.344 km/s
True Right ascension
04h 41m 45s
True Declination
0° 00' 00"
Sunlit
Object was in daylight at epoch
Visualization orbit readout
Latitude
Unknown
Longitude
Unknown
Altitude
Unknown
Speed
Unknown
Apparent Right ascension
Unknown
Apparent Declination
Unknown
Sunlit
N/A
Visualization observer readout
Local Sidereal Time
17:34:40
Azimuth
Unknown
Elevation
Unknown
Doppler factor
Unknown
Orbital elements
Apogee altitude
972.766 km
Perigee altitude
881.51 km
Semi-major axis
7,305.275 km
Eccentricity
0.00625
Inclination
82.9007°
RAAN
70.4383°
Arg. of periapsis
206.4321°
True anomaly
153.68403°
Mean anomaly
153.3654°
Eccentric anomaly
153.52494°
Mean motion
3.47607 °/min
Orbital period
103.57 mins
BSTAR
0.00048459
Loading maneuver chart data...
Computing Atmospheric mass density...
Loading historical data...
Loading historical data...
Loading historical data...
Loading historical data...
Loading historical data...
Loading historical data...
Loading historical data...

Documentation

Showing up to 5 results
|